{"data":{"norad_id":57169,"epoch":"2026-05-25T04:55:54.538176Z","epoch_age_seconds":61308,"freshness":"FRESH","line1":"1 57169U 23091D   26145.20549234  .00008280  00000+0  34687-3 0  9998","line2":"2 57169  97.5124 206.7021 0010659 172.7939 187.3453 15.23745032160667","mean_motion":15.23745032,"eccentricity":0.0010659,"inclination_deg":97.5124,"raan_deg":206.7021,"arg_perigee_deg":172.7939,"mean_anomaly_deg":187.3453,"bstar":0.00034687,"rev_number":16066,"period_min":94.503999669152,"perigee_km":487.23084347294,"apogee_km":501.88205136415,"semimajor_km":6872.6934474185,"source":"CELESTRAK","updated_at":"2026-05-25T13:37:59.904062Z"}}